Overview Statistics Trail Chart Weather Telemetry Raw packets
 

This is the latest recevied weather packets stored in our database for station/object KO6HRZ. If no packets are shown the sender has not sent any weather packets the latest 10 day(s).

<< 1 2 3 4 >>
Time Temp. Humidity Pressure Rain* Wind** Luminosity Snow
1788673578 18.89° C 57% 1012.2 hPa 0 mm - 0 W/m² -
1788672973 18.89° C 56% 1011.9 hPa 0 mm - 0 W/m² -
1788672369 19.44° C 54% 1011.8 hPa 0 mm - 0 W/m² -
1788671768 20° C 52% 1012 hPa 0 mm - 0 W/m² -
1788671164 20° C 50% 1011.9 hPa 0 mm - 0 W/m² -
1788670563 20° C 50% 1012 hPa 0 mm - 0 W/m² -
1788669960 20.56° C 49% 1012 hPa 0 mm - 0 W/m² -
1788669357 20.56° C 50% 1012.2 hPa 0 mm - 0 W/m² -
1788668757 20.56° C 52% 1012 hPa 0 mm - 0 W/m² -
1788668154 21.11° C 51% 1011.8 hPa 0 mm - 0 W/m² -
1788667550 21.67° C 50% 1011.6 hPa 0 mm - 0 W/m² -
1788666946 21.67° C 50% 1011.6 hPa 0 mm - 0 W/m² -
1788666342 22.22° C 49% 1011.6 hPa 0 mm - 0 W/m² -
1788665738 22.22° C 50% 1011.6 hPa 0 mm - 0 W/m² -
1788665135 22.78° C 48% 1011.2 hPa 0 mm - 0 W/m² -
1788664532 22.78° C 48% 1011.3 hPa 0 mm - 0 W/m² -
1788663926 23.33° C 49% 1011.2 hPa 0 mm - 0 W/m² -
1788663326 23.33° C 49% 1011.1 hPa 0 mm - 0 W/m² -
1788662725 23.89° C 48% 1010.9 hPa 0 mm - 0 W/m² -
1788662121 23.89° C 46% 1011 hPa 0 mm - 2 W/m² -
1788661517 24.44° C 45% 1011.1 hPa 0 mm - 6 W/m² -
1788660914 25° C 44% 1011 hPa 0 mm - 15 W/m² -
1788660313 25.56° C 44% 1011.2 hPa 0 mm - 30 W/m² -
1788659712 25.56° C 43% 1011.1 hPa 0 mm - 40 W/m² -
1788659107 26.11° C 43% 1011.2 hPa 0 mm - 51 W/m² -

* Rain latest hour (hover to see other rain measurements)
** Current wind speed in m/s (hover to see current wind gust speed)